GFSSW_con_lsi_150.txt.gz
Lid_Strength_Index
-1 -1 -1 -2 -1 -1 -1 -1 -1 -1 -1 -0 -1 -1 0 1 2 4 6 4 3 1 3 5 7 8 8 9 7 7 10 12 11 10 10 8 7 6 6 6 6 5 5 4 2
-1 -1 -1 -1 -2 -1 -1 -1 -1 -1 -1 -1 -0 -1 0 1 4 5 2 0 -0 1 5 5 8 9 10 9 9 10 11 10 8 8 9 8 9 9 7 6 7 6 4 3 3
-1 -1 -1 -1 -1 -1 -1 -1 -1 -1 -1 -1 -1 0 0 1 5 6 0 0 -0 1 4 6 7 9 11 10 9 10 11 8 9 10 9 9 9 6 7 8 6 6 6 4 4
-1 -1 -1 -1 -1 -1 -1 -1 -1 -1 -1 -1 -1 0 0 2 11 4 1 0 0 4 6 7 8 11 12 12 10 12 10 10 9 10 10 11 10 7 7 7 5 6 4 4 4
-1 -1 -1 -1 -1 -1 -1 -1 -1 -1 -1 -1 -1 -1 2 5 5 3 2 1 2 3 6 8 9 10 12 11 11 12 11 10 10 11 11 10 11 10 9 6 6 6 4 4 4
-1 -1 -1 -1 -1 -1 -1 -1 -1 -1 -1 -1 -1 -1 3 9 1 2 3 3 4 4 6 7 8 7 9 10 10 10 10 11 11 11 11 12 12 11 9 7 7 6 5 4 4
-1 -1 -1 -1 -1 -1 -1 -1 -1 -1 -1 -0 -1 0 4 6 1 2 3 4 5 5 8 6 5 8 8 10 8 8 11 12 12 11 12 12 13 12 10 9 8 7 6 4 4
-1 -1 -1 -1 -1 -1 -1 -1 -1 -1 -1 -1 -1 1 7 2 1 0 2 4 5 5 6 6 5 7 9 8 11 11 11 13 10 10 12 12 13 10 10 10 9 8 7 5 4
-1 -1 -1 -1 -1 -1 -1 -1 -1 -1 -1 -1 2 3 8 1 3 1 1 4 5 6 6 5 5 8 9 12 13 12 14 13 11 10 11 13 12 9 8 10 11 9 8 6 5
-1 -1 -1 -1 -1 -1 -1 -0 -1 1 1 1 2 6 5 6 4 3 2 3 7 7 8 8 9 11 12 12 17 15 14 13 12 10 10 13 13 9 11 11 11 10 9 7 5
-1 -1 -1 -1 -1 -1 -0 1 4 5 4 7 6 7 6 3 3 4 3 4 6 9 13 10 13 14 13 11 10 11 12 13 11 10 12 12 11 10 9 12 12 12 12 9 6
-1 -1 -1 -1 -1 -1 0 4 4 3 9 5 6 6 6 4 7 6 2 7 8 12 11 13 15 11 10 9 10 11 13 13 10 12 14 13 13 11 10 9 9 11 11 11 10
-1 -1 -1 -1 -1 0 2 3 1 1 8 7 5 7 7 5 7 7 4 6 9 11 13 15 13 10 11 10 12 12 12 12 13 13 14 15 15 13 11 10 9 9 9 9 10
-1 -1 -1 -1 2 2 3 1 1 2 12 11 9 7 7 6 9 5 4 6 8 11 12 13 11 11 11 12 11 14 10 11 12 14 16 14 18 13 11 11 11 10 9 9 9
-0 -1 -1 -1 3 4 2 1 1 4 20 9 9 4 7 8 9 8 5 7 10 10 10 13 11 12 13 12 10 12 10 11 12 14 15 15 19 16 12 13 12 11 10 9 8
-0 -1 -1 1 1 1 0 1 3 13 19 13 9 10 10 8 9 8 7 7 7 9 9 10 10 9 10 9 10 10 11 12 14 15 18 15 15 16 13 12 12 11 10 10 9
-0 -0 1 2 4 0 1 4 14 19 11 13 13 10 10 11 10 10 11 11 13 15 15 12 12 9 9 11 10 12 15 20 20 19 19 15 15 14 11 10 11 10 10 11 9
-0 0 1 1 0 1 3 10 19 16 13 11 11 11 13 11 11 11 12 14 10 11 14 16 17 12 11 11 12 13 13 18 22 21 19 18 19 16 11 9 9 10 11 11 12
-0 2 3 2 1 1 7 17 19 13 11 12 12 14 14 12 12 12 12 13 11 10 14 16 16 11 11 9 10 13 14 11 18 22 20 18 16 13 11 12 12 12 12 12 11
3 5 5 2 1 4 11 15 13 9 10 11 14 13 15 14 14 13 14 11 11 9 9 12 16 12 12 11 11 11 10 15 15 22 23 19 18 16 14 13 12 12 12 12 11
4 8 4 2 2 7 14 13 11 9 9 12 13 14 13 14 13 14 13 11 9 9 8 10 14 16 14 14 14 15 14 13 13 15 19 20 18 14 13 12 12 13 12 13 12
6 11 4 3 10 10 13 10 9 10 8 10 11 12 13 14 13 13 14 11 9 8 11 10 14 17 16 14 12 11 13 11 15 18 18 18 18 14 13 12 12 13 12 13 13
8 8 4 4 14 13 10 10 10 10 10 10 11 11 11 13 14 12 11 9 8 9 10 10 15 19 18 14 14 14 13 11 13 15 19 20 17 13 13 13 13 14 13 12 13
8 12 9 8 8 11 12 12 12 9 9 9 11 10 11 13 12 13 12 9 8 8 7 9 13 16 19 17 14 16 14 13 13 18 18 17 17 15 14 14 13 13 13 12 12
9 11 10 13 12 10 10 11 12 12 9 8 11 11 13 14 13 13 11 9 8 8 8 10 15 14 14 14 13 14 14 13 14 13 16 15 15 14 14 13 13 13 13 13 13
10 11 10 11 10 11 10 13 12 11 10 11 12 11 11 13 13 13 11 10 11 9 9 10 15 15 17 14 14 16 14 13 13 13 13 13 15 12 11 14 14 13 13 13 12
7 6 8 10 11 12 12 11 11 9 9 8 9 11 10 11 9 10 8 8 9 10 11 12 14 16 18 15 15 18 16 14 13 12 12 15 13 12 13 12 12 12 12 12 12

GFSSW_con_lsi_153.txt.gz
Lid_Strength_Index
-1 -1 -1 -1 -2 -1 -1 -1 -2 -1 -1 -1 -1 -0 -1 -0 1 3 7 4 3 1 2 5 6 5 7 9 8 8 13 13 12 12 10 9 9 8 7 7 6 5 6 4 2
-1 -1 -1 -1 -2 -2 -1 -1 -2 -2 -1 -1 -1 -1 0 -0 3 4 2 0 0 1 3 3 8 6 9 10 10 11 12 12 9 10 11 9 9 8 7 8 8 7 4 3 2
-2 -2 -1 -1 -2 -2 -2 -1 -1 -1 -1 -1 -1 -1 -1 1 4 4 -1 -0 0 2 4 6 6 7 9 9 11 11 12 9 9 11 10 10 11 9 8 9 7 7 6 4 4
-1 -2 -1 -2 -1 -1 -1 -1 -1 -1 -1 -1 -1 -1 -0 2 11 3 -2 -2 -0 3 5 6 8 9 11 11 10 13 10 10 9 11 11 12 11 9 10 10 6 4 4 4 4
-1 -1 -1 -1 -1 -1 -1 -1 -1 -1 -1 -1 -1 -1 1 5 6 3 -1 -1 1 5 7 7 8 10 11 11 10 11 10 11 10 11 12 11 12 11 10 8 7 4 4 5 4
-1 -1 -1 -1 -1 -1 -1 -1 -1 -1 -1 -1 -1 -1 3 9 2 3 2 1 2 5 7 6 7 7 9 10 11 9 9 9 11 12 12 12 13 12 11 10 8 5 5 5 4
-1 -1 -1 -1 -1 -1 -1 -1 -1 -1 -1 -1 -1 0 4 6 1 2 2 3 3 3 7 6 5 7 7 10 8 8 10 10 12 12 13 12 14 13 11 11 11 7 5 5 4
-1 -1 -1 -1 -1 -1 -1 -1 -1 -1 -1 -1 -1 1 7 0 1 1 3 3 3 3 4 5 5 7 8 8 10 11 11 13 12 12 12 12 13 10 11 12 12 11 8 5 4
-1 -1 -1 -1 -1 -1 -1 -1 -1 -1 -1 -1 1 3 7 -0 3 1 2 4 4 3 3 4 5 8 8 11 13 13 15 14 12 11 13 14 14 10 9 12 12 13 11 9 5
-1 -1 -1 -1 -1 -1 -1 -1 -1 1 -0 -0 1 6 4 6 3 2 1 2 5 5 5 6 7 10 11 12 17 15 14 13 13 12 13 15 15 11 10 12 12 13 13 11 8
-1 -1 -1 -1 -1 -1 -0 1 6 7 4 7 6 6 5 3 1 3 3 5 5 7 10 8 11 14 12 11 10 11 13 13 11 10 13 13 13 12 11 11 13 13 13 13 10
-1 -1 -1 -1 -1 -1 1 5 5 4 9 4 4 5 3 3 7 5 3 7 8 11 10 11 13 10 10 10 11 12 13 13 11 11 12 14 13 11 11 10 11 11 12 12 12
-1 -1 -1 -1 -1 0 3 4 1 3 8 7 5 6 5 4 7 7 4 6 9 11 11 12 12 10 11 11 12 12 14 13 13 14 15 16 15 15 12 11 11 10 10 10 11
-1 -1 -1 -1 1 2 4 2 2 3 12 11 8 6 5 5 9 4 3 6 8 11 11 11 9 10 11 12 11 15 10 11 13 15 17 15 19 16 13 12 11 10 9 10 10
1 -0 -1 -1 3 4 3 2 3 5 23 9 9 3 5 8 7 7 3 6 10 11 11 12 11 12 13 12 10 13 10 11 13 15 17 17 20 17 15 13 12 10 10 10 10
2 -0 -1 2 2 2 2 3 5 18 22 13 9 10 10 8 8 7 7 5 6 10 10 10 7 9 10 10 9 9 11 13 13 15 19 16 18 18 15 13 13 12 11 10 9
1 -0 1 2 5 2 3 7 19 24 14 13 12 10 10 11 10 10 10 11 13 15 15 12 12 9 8 12 10 11 14 19 20 20 20 16 17 15 13 11 12 12 12 12 11
2 0 2 2 2 3 5 14 27 22 18 10 10 11 13 11 11 11 12 13 12 11 14 16 17 12 10 11 13 13 14 18 22 22 21 19 19 16 11 8 8 11 13 13 12
2 2 4 2 2 4 10 23 22 19 13 12 11 14 14 11 11 12 12 13 11 10 15 16 15 10 9 9 9 13 16 12 18 24 22 19 17 14 12 12 12 13 12 13 12
4 4 5 2 2 6 13 18 17 10 11 11 15 12 15 14 13 13 14 11 11 9 9 12 17 12 11 9 10 11 11 15 16 23 24 21 20 17 14 12 12 13 13 12 12
6 9 4 2 4 9 16 17 13 9 9 13 13 14 13 14 13 14 13 11 9 9 8 11 14 15 12 13 14 14 13 13 13 17 21 23 20 15 13 12 13 13 12 12 12
9 11 4 3 11 14 17 13 9 10 9 10 11 12 12 13 14 13 14 11 8 8 12 10 14 16 14 12 10 11 13 12 15 18 19 18 19 13 14 13 12 13 13 13 13
9 8 4 6 14 14 13 12 11 11 11 11 12 10 9 12 14 12 12 9 8 9 10 10 14 18 17 13 13 13 13 12 13 16 18 20 19 14 14 14 14 13 13 13 13
8 12 9 9 13 12 14 15 14 10 10 10 11 9 10 12 12 13 12 10 8 8 8 8 14 16 17 15 14 15 13 13 12 18 19 16 17 17 15 15 14 13 13 13 13
9 11 11 13 14 12 12 13 14 13 10 10 11 11 11 14 13 14 12 12 10 9 8 10 15 14 14 13 13 13 13 12 13 13 16 15 15 15 15 14 14 13 13 13 13
11 11 13 11 11 12 12 14 13 12 11 12 13 11 10 13 13 15 12 11 12 9 10 9 15 13 15 14 13 15 13 12 12 12 12 14 16 13 14 14 15 14 13 13 13
8 9 10 10 12 15 14 13 12 11 10 10 10 11 11 10 8 9 9 9 9 10 11 12 13 15 17 16 15 18 14 13 12 12 12 14 12 12 12 13 13 13 13 13 13

GFSSW_con_lsi_156.txt.gz
Lid_Strength_Index
-1 -1 -1 -1 -1 -1 -1 -1 -1 -2 -2 -1 -1 -1 -1 -1 0 2 5 3 2 0 2 3 3 5 5 7 7 9 13 14 12 12 11 11 11 10 7 7 6 6 5 4 3
-2 -2 -1 -1 -2 -2 -2 -1 -1 -1 -1 -1 -1 -1 -1 -1 2 3 1 -1 -1 -0 3 3 5 5 8 9 8 11 14 13 10 10 11 11 11 10 8 7 8 7 5 3 3
-2 -2 -2 -2 -2 -2 -1 -2 -1 -1 -1 -1 -1 -1 -1 -0 4 4 -1 -1 -2 -0 4 5 4 6 9 9 9 10 13 10 9 10 10 10 11 10 9 9 7 7 6 4 4
-1 -2 -2 -2 -2 -2 -1 -2 -2 -1 -2 -1 -1 -1 -1 1 11 3 -0 -2 -2 2 4 6 6 7 9 10 9 12 10 10 9 10 11 11 10 10 9 8 6 5 4 4 4
-1 -1 -1 -1 -2 -2 -2 -1 -1 -2 -1 -1 -1 -1 1 5 5 2 -0 -1 0 2 4 6 7 8 10 9 10 11 10 9 8 9 12 12 13 11 11 10 9 4 4 5 4
-1 -1 -1 -1 -1 -1 -1 -1 -1 -1 -2 -1 -1 -1 3 9 1 2 1 0 2 3 5 5 7 7 9 9 9 9 9 9 8 9 12 13 13 13 12 11 7 5 5 5 4
-1 -1 -1 -1 -1 -1 -1 -1 -1 -1 -1 -1 -1 0 4 6 1 1 1 2 2 3 6 5 4 6 7 9 8 8 10 9 9 11 13 13 14 14 11 12 8 6 5 5 4
-1 -1 -1 -1 -1 -1 -1 -1 -1 -1 -1 -1 -1 1 6 0 1 2 1 2 2 2 3 3 3 6 8 8 10 10 10 14 9 11 12 13 15 11 12 13 12 8 6 5 5
-1 -1 -1 -1 -1 -1 -1 -1 -1 -1 -1 -1 1 3 7 -0 3 2 2 3 3 2 2 2 3 7 7 12 13 12 15 14 12 10 12 14 15 11 10 13 13 13 10 6 5
-1 -1 -1 -1 -1 -1 -1 -1 -1 -0 -0 -0 1 6 4 6 3 2 2 2 4 4 5 5 7 10 10 12 17 15 15 13 13 10 13 15 15 12 11 12 13 13 13 10 6
-1 -1 -1 -1 -1 -1 -0 2 6 7 4 6 6 6 5 3 1 3 2 3 4 6 10 8 11 14 12 11 10 11 13 14 11 9 12 13 14 13 12 12 12 13 14 13 10
1 -1 -1 -1 -1 -1 1 6 6 5 8 5 4 4 3 3 7 5 2 7 8 11 9 11 13 10 9 9 11 12 13 14 11 10 11 13 14 12 12 12 11 11 12 13 12
0 -0 -1 -1 -1 0 2 4 1 3 9 7 5 5 5 4 7 7 4 6 9 11 11 12 11 8 10 11 12 12 14 13 13 11 12 14 14 13 13 11 10 10 9 10 11
0 1 -1 -1 2 2 3 1 2 3 13 12 8 6 5 5 8 4 3 6 9 11 10 11 9 10 11 12 11 15 10 11 13 14 17 14 18 15 13 12 11 10 10 9 9
0 1 -1 -0 3 4 2 1 3 6 27 12 8 3 5 8 7 7 3 6 10 11 10 13 11 11 13 12 10 13 10 12 12 14 15 17 18 16 16 15 13 11 10 9 9
1 1 -0 1 2 2 1 3 6 17 23 12 8 9 9 8 8 7 7 5 6 10 9 10 8 9 10 9 9 9 11 12 13 15 19 15 18 17 17 14 13 12 11 10 10
1 2 2 2 5 2 3 6 16 23 15 13 12 10 10 11 10 10 10 11 13 15 15 12 11 9 8 12 10 11 14 19 20 20 20 17 19 15 13 13 13 12 12 11 10
1 1 2 2 2 3 5 13 24 22 18 9 10 10 12 11 11 11 12 13 10 11 14 16 18 12 9 11 13 13 13 18 22 21 19 18 19 16 12 10 10 12 12 13 13
1 3 4 3 2 3 9 17 19 20 14 12 11 14 13 11 11 11 12 13 11 10 15 16 16 10 9 9 10 13 16 12 18 22 21 19 18 15 13 14 13 13 12 13 13
4 5 8 2 3 6 12 17 16 14 11 11 15 13 15 14 13 13 13 10 11 9 8 12 16 11 10 9 9 11 10 16 16 21 25 21 21 18 15 14 13 14 14 13 14
6 9 5 2 4 9 15 17 13 10 10 13 15 13 13 14 13 13 13 11 9 10 9 10 13 14 11 13 13 13 14 13 13 17 21 23 20 16 14 14 14 13 13 13 13
10 12 4 3 11 11 15 14 9 10 9 10 12 12 12 13 13 13 13 11 8 8 12 10 13 16 14 11 10 10 12 12 16 18 19 20 20 15 15 16 15 13 13 13 13
10 8 3 5 14 15 14 13 11 11 11 11 12 11 10 12 14 13 12 8 8 9 11 10 14 18 17 13 12 12 12 11 12 15 18 20 18 15 16 16 15 14 13 13 14
9 11 8 8 12 13 14 15 14 10 11 10 11 10 11 12 11 13 12 9 8 8 8 8 13 15 18 15 13 15 13 11 12 16 16 16 17 16 15 15 15 14 14 14 13
10 11 10 14 13 13 13 13 14 13 11 11 12 12 12 15 13 13 11 11 10 8 9 10 15 14 13 14 13 13 13 12 13 12 16 14 16 13 15 14 14 14 14 13 13
10 10 11 13 12 13 12 14 13 13 12 13 13 11 11 13 13 13 11 12 11 10 11 10 15 13 15 13 14 15 12 12 12 12 12 14 16 13 13 15 15 14 14 14 13
7 9 10 11 12 14 15 13 13 12 12 11 11 11 12 11 10 9 8 9 10 11 11 12 13 15 17 13 14 17 14 12 12 11 12 15 12 13 13 14 14 14 14 13 13

GFSSW_con_lsi_159.txt.gz
Lid_Strength_Index
-1 -1 -1 -1 -1 -1 -1 -1 -1 -1 -2 -2 -1 -1 -1 -1 -0 2 4 2 1 -0 2 3 3 4 4 5 6 7 13 14 13 12 11 12 12 11 8 7 7 6 6 4 3
-2 -1 -1 -1 -1 -1 -1 -1 -1 -1 -1 -1 -1 -1 -1 -1 2 3 1 -1 -1 -1 3 3 5 4 7 8 7 9 13 13 10 10 11 11 12 11 10 8 8 7 5 3 3
-2 -2 -2 -2 -2 -1 -1 -2 -2 -1 -1 -1 -1 -1 -1 0 4 4 -2 -2 -2 -0 2 3 4 5 8 8 8 10 12 11 11 9 10 11 12 11 10 11 7 7 6 4 4
-1 -1 -2 -2 -2 -2 -2 -1 -2 -2 -1 -1 -1 -1 -1 2 11 3 -2 -2 -2 2 3 5 5 7 9 9 8 10 9 9 9 9 9 12 11 11 11 8 7 5 4 4 4
-1 -1 -1 -1 -2 -2 -2 -1 -1 -1 -2 -2 -2 -1 1 5 6 2 -0 -1 -0 3 4 4 6 7 10 9 9 10 9 8 8 8 8 11 13 12 12 10 9 4 4 5 4
-1 -1 -1 -1 -1 -2 -2 -2 -2 -1 -1 -1 -2 -1 3 9 1 1 0 0 2 3 4 4 5 5 8 9 9 9 9 9 8 8 8 9 11 14 12 11 6 5 5 5 4
-1 -1 -1 -1 -1 -1 -2 -1 -1 -1 -1 -1 -1 0 4 6 1 2 0 1 2 3 4 4 4 5 7 9 7 8 10 9 8 8 9 11 14 15 12 13 7 6 6 5 4
-1 -1 -1 -1 -1 -1 -1 -1 -1 -1 -1 -1 -1 1 6 1 2 1 1 3 3 2 3 3 3 5 6 7 9 11 10 14 9 8 8 12 15 12 11 13 12 7 6 5 5
-1 -1 -1 -1 -1 -1 -1 -1 -1 -1 -1 -1 1 3 7 0 3 2 2 3 3 2 2 2 3 6 7 11 12 12 16 15 12 8 9 12 15 12 10 13 13 13 6 6 5
-0 -1 -1 -1 -1 -1 -1 -1 -1 -1 -0 -0 1 6 4 6 3 2 2 2 4 4 5 6 7 10 10 12 17 15 15 13 13 10 10 12 14 12 12 12 13 13 13 7 6
-1 -1 -1 -1 -1 -1 -0 2 5 5 4 6 6 6 5 3 1 3 2 3 4 6 10 8 11 14 12 11 10 11 13 14 12 9 11 12 11 10 11 13 13 13 13 13 9
-1 -1 -1 -1 -1 -1 1 5 5 5 8 4 4 4 4 3 7 5 2 7 8 11 9 11 13 10 9 10 11 11 13 14 11 10 11 12 12 10 10 10 11 11 11 13 12
0 -0 -1 -1 -1 0 3 4 2 3 8 7 5 6 5 4 7 7 4 6 9 11 11 12 11 8 10 11 12 12 13 14 13 11 11 12 14 12 10 12 11 11 10 9 11
-1 0 -1 -1 2 2 4 2 1 4 16 13 8 6 5 5 8 4 3 6 9 11 10 11 8 10 11 12 11 15 10 11 13 14 17 12 19 13 11 11 10 11 10 10 9
-1 -1 1 -1 2 4 3 1 3 7 26 12 9 3 5 8 7 7 3 6 10 10 10 12 11 12 13 12 10 13 10 11 12 14 15 16 17 15 12 13 11 11 10 9 8
-1 -1 -1 1 2 3 1 3 6 18 26 13 8 9 9 8 8 7 7 5 6 10 10 10 8 9 10 9 9 9 11 12 12 14 19 15 16 16 15 15 13 11 10 10 9
-1 -1 0 1 5 1 2 6 18 24 15 13 12 10 10 11 10 9 10 11 13 15 15 12 12 9 8 12 10 11 14 19 20 20 20 15 16 14 13 13 13 13 11 12 11
-1 -0 1 2 1 2 4 12 23 21 18 10 10 10 12 11 11 10 11 13 10 11 14 16 17 12 9 11 13 13 13 18 23 22 20 17 19 15 12 11 10 11 10 12 13
-1 3 4 3 2 2 8 16 19 18 14 11 11 13 13 11 11 11 12 12 11 10 15 16 16 10 9 9 10 13 16 11 16 21 21 18 18 16 13 13 13 14 13 12 12
2 5 7 3 2 4 11 15 16 14 10 10 14 12 15 13 13 13 13 10 11 9 8 12 16 11 10 9 9 11 10 16 16 21 23 20 20 17 16 13 10 14 14 14 13
3 8 6 2 2 8 14 15 14 12 10 12 14 13 13 13 13 13 13 10 9 10 9 11 13 14 11 13 14 13 14 13 13 15 19 22 19 16 13 13 14 13 13 13 14
7 11 5 3 10 11 13 14 10 12 11 11 12 12 12 12 13 13 13 11 8 8 12 10 13 16 15 10 9 10 12 13 17 18 18 19 18 15 14 15 15 15 14 14 14
8 7 4 3 13 13 11 13 11 12 12 11 12 11 11 12 14 12 11 8 8 9 11 10 14 18 17 13 11 13 12 11 12 14 16 18 17 14 16 16 15 15 14 15 16
7 11 8 6 10 11 13 14 14 11 12 11 11 11 12 12 11 13 12 9 8 8 8 8 13 15 17 16 13 15 13 12 13 17 16 15 15 14 14 15 15 14 15 15 15
8 10 10 12 11 11 12 13 14 14 12 11 12 12 12 14 14 13 12 11 10 8 9 10 15 14 13 13 13 13 13 13 14 14 16 14 13 12 11 12 14 14 14 14 14
9 9 9 10 10 11 11 14 13 13 13 13 13 12 12 13 13 13 11 12 12 9 10 10 14 13 15 13 13 16 12 12 12 13 13 12 13 11 12 12 16 14 14 14 14
6 6 9 10 11 12 14 14 14 12 12 12 12 12 13 12 10 10 9 9 10 10 12 12 13 15 17 14 14 17 14 12 12 11 12 14 11 11 12 14 13 13 14 13 13

GFSSW_con_lsi_162.txt.gz
Lid_Strength_Index
-0 0 0 -0 -1 -0 -0 0 0 -1 -1 -1 -1 -1 -1 -1 -1 1 4 1 1 -1 1 3 3 4 4 6 4 6 13 14 13 12 12 11 12 12 9 8 6 5 6 4 3
-1 -1 0 0 -1 -1 -1 -0 -0 -1 -1 -1 -1 -1 -1 -1 1 3 -0 -1 -2 -2 3 4 5 5 7 7 7 9 12 12 11 10 12 12 12 12 11 10 7 7 5 4 3
-1 -1 -1 -1 -1 -1 -1 -1 -1 -1 -1 -1 -1 -1 -1 -1 4 4 -2 -2 -2 -1 2 3 4 5 8 8 8 9 11 9 9 9 9 11 11 11 12 12 7 7 6 4 4
-1 -1 -1 -1 -1 -1 -1 -1 -2 -1 -1 -1 -1 -1 -1 2 11 3 -1 -2 -2 1 3 4 5 7 9 9 8 11 8 8 8 8 9 10 11 13 12 10 9 6 4 4 4
-1 -1 -1 -1 -1 -1 -2 -1 -1 -1 -1 -1 -2 -1 1 5 6 2 -0 -1 -0 2 3 5 6 7 10 8 8 11 8 7 7 8 9 8 10 12 12 10 10 7 4 5 4
-1 -1 -1 -1 -1 -1 -2 -2 -1 -1 -2 -1 -1 -1 3 9 1 1 0 0 2 3 3 4 6 6 8 8 9 9 8 8 8 8 8 9 9 13 12 12 10 6 5 5 4
-1 -1 -1 -1 -1 -1 -1 -2 -2 -1 -1 -1 -1 0 4 5 1 1 0 1 2 2 4 3 4 6 7 9 6 8 11 9 9 8 9 9 10 13 11 13 12 8 6 5 4
-1 -1 -1 -1 -1 -1 -1 -1 -1 -1 -1 -1 -1 2 6 2 0 1 2 3 2 3 3 3 2 5 6 7 8 10 10 14 10 8 8 9 13 10 10 13 13 11 7 5 5
-1 -1 -1 -1 -1 -1 -1 -1 -1 -1 -1 -1 1 3 7 0 3 1 2 3 3 2 2 2 3 6 7 10 12 12 16 14 12 8 9 11 13 10 10 12 13 14 10 6 5
-1 -1 -1 -1 -1 -1 -1 -1 -1 -0 -0 0 1 6 5 6 3 2 3 2 4 4 5 6 7 10 10 12 17 15 15 14 14 10 10 12 13 10 9 10 12 13 14 9 6
-1 -1 -1 -1 -1 -1 -0 2 5 5 3 7 6 6 5 3 2 3 3 3 4 6 10 8 11 14 12 10 11 11 13 13 12 9 12 12 12 10 9 9 11 12 13 14 11
-1 -1 -1 -1 -1 -1 1 6 6 5 8 4 4 4 4 3 6 5 2 7 8 11 9 11 13 10 9 9 11 12 14 14 11 10 11 12 12 10 9 9 9 9 10 12 12
-1 -1 -1 -1 -1 0 3 5 3 4 9 7 5 6 5 4 7 7 4 6 9 11 11 13 11 8 10 11 12 12 14 13 13 11 11 12 14 12 9 9 9 9 9 8 9
-1 -1 -1 -1 2 2 4 2 3 7 16 11 8 6 5 5 9 4 3 6 8 11 10 11 9 10 11 12 11 15 10 11 12 14 17 12 18 13 12 10 10 9 9 9 9
-1 -1 -1 -1 2 4 3 2 4 9 27 12 9 3 5 7 7 7 3 6 10 10 10 12 11 11 12 12 10 13 10 11 12 14 15 14 17 15 12 12 12 10 9 9 9
-1 -1 -1 1 2 2 1 3 7 17 25 15 8 9 9 8 8 7 7 6 6 9 9 11 8 9 10 9 9 9 11 12 13 14 19 15 16 15 13 13 12 10 9 9 8
-1 -1 1 0 4 1 2 6 15 20 15 13 11 9 10 11 10 9 10 11 12 15 15 12 11 9 9 12 9 11 14 19 20 20 20 14 16 15 11 13 13 12 12 11 11
-1 0 1 2 1 1 3 11 19 18 18 10 11 10 12 11 10 10 11 13 10 11 14 16 17 12 9 11 12 13 13 18 23 21 19 15 19 15 11 9 9 10 10 11 13
0 2 3 2 0 2 8 15 17 17 15 11 11 13 12 11 11 11 12 12 11 10 15 16 15 10 9 9 10 13 16 12 17 18 19 17 17 14 12 12 12 12 13 12 11
3 5 4 2 1 3 11 13 16 14 11 10 14 12 15 13 13 12 13 10 10 9 9 12 17 11 10 9 9 12 10 17 16 22 23 18 18 16 14 12 12 12 13 13 13
4 9 4 2 3 7 13 13 14 14 10 13 14 13 13 13 12 13 13 11 9 10 9 10 13 14 11 13 14 13 14 13 14 16 20 21 17 15 12 11 12 13 13 13 13
7 11 3 3 11 10 12 13 11 11 10 11 12 12 12 12 13 13 13 11 8 8 12 10 13 16 14 10 9 10 12 13 17 18 17 18 16 13 13 13 14 14 14 15 15
9 8 3 3 13 12 10 12 11 11 12 12 12 11 11 11 14 12 11 8 8 9 11 10 14 18 17 13 11 13 12 11 12 13 16 19 16 11 13 14 14 15 14 14 15
8 11 9 7 9 10 12 12 12 10 12 12 12 11 11 12 12 12 12 10 8 8 8 8 13 15 18 16 13 15 13 12 13 17 16 16 14 11 10 12 11 12 14 15 14
8 10 9 12 11 10 11 12 12 13 12 12 12 11 12 14 13 13 11 11 9 8 9 10 15 14 13 13 13 13 13 13 14 14 17 14 13 11 10 10 9 11 13 14 14
9 10 9 11 10 11 10 13 13 13 13 13 13 12 13 12 12 13 11 11 12 10 10 9 14 13 15 13 13 14 13 12 12 13 13 13 13 9 8 9 9 10 13 13 14
6 7 8 9 11 11 13 12 12 12 12 12 12 12 13 12 11 10 11 11 11 11 11 12 13 15 17 14 14 17 14 13 12 11 12 15 12 8 9 9 9 8 9 13 13

GFSSW_con_lsi_165.txt.gz
Lid_Strength_Index
-1 -0 -0 -0 -1 -0 -0 0 0 -0 -1 -1 -0 -1 -1 -1 -1 0 4 1 0 -1 1 2 3 4 4 5 4 6 11 13 12 12 11 11 12 10 8 8 6 5 4 4 2
-1 -1 -1 -0 -1 -1 -1 -0 -0 -0 -1 -1 -1 -1 -1 -1 1 3 -1 -2 -2 -2 2 3 5 5 7 6 6 8 11 11 9 10 10 10 11 11 11 10 8 5 4 3 3
-1 -1 -1 -1 -1 -1 -1 -1 -1 -1 -1 -1 -1 -1 -1 -1 4 4 -2 -2 -2 -1 2 3 4 6 7 6 7 8 11 9 9 8 8 9 10 11 11 12 9 7 5 4 3
-1 -1 -1 -1 -1 -1 -1 -1 -1 -1 -1 -1 -1 -1 -1 1 11 3 -2 -2 -2 0 2 3 4 7 9 9 7 10 8 8 7 7 8 9 9 11 11 10 9 9 6 4 4
-1 -1 -1 -1 -1 -1 -2 -1 -1 -2 -2 -1 -1 -1 1 5 6 2 -1 -1 -0 1 3 4 6 7 10 8 8 9 8 7 7 8 8 8 9 9 11 9 9 10 5 4 4
-1 -1 -1 -1 -1 -2 -2 -2 -1 -2 -2 -1 -1 -1 3 8 1 0 0 0 2 2 3 4 5 5 7 8 9 8 8 8 7 8 8 9 9 10 10 10 11 9 7 5 4
-1 -1 -1 -1 -1 -1 -2 -2 -2 -2 -2 -1 -1 1 4 6 1 1 0 2 2 2 4 3 3 5 6 9 7 7 10 9 8 8 8 8 10 11 8 9 11 11 9 5 5
-1 -1 -1 -1 -1 -1 -1 -2 -2 -2 -2 -1 -1 3 7 3 1 1 2 2 2 2 2 2 2 5 6 6 8 10 10 14 9 8 8 9 13 9 8 11 12 11 11 7 5
-1 -1 -1 -1 -1 -1 -1 -1 -1 -1 -1 -1 2 4 7 1 4 2 1 3 3 3 2 1 3 7 7 10 12 12 15 14 12 8 9 10 12 9 7 9 10 10 12 11 7
-1 -1 -1 -1 -1 -1 -1 -1 -1 -1 0 0 2 6 6 6 3 2 1 2 4 4 5 5 7 10 10 12 17 14 15 13 14 10 10 11 11 9 8 9 10 11 11 12 10
-1 -1 -1 -1 -1 -1 -1 1 5 5 3 7 6 7 6 3 2 3 2 3 4 6 10 8 11 13 11 10 11 12 12 13 12 9 11 11 11 10 8 8 9 9 10 10 11
-1 -1 -1 -1 -1 -1 0 6 6 6 8 4 4 5 4 3 7 4 2 7 8 11 9 11 13 10 9 9 11 12 13 14 11 9 11 12 12 9 9 8 8 8 8 9 10
-1 -1 -1 -1 -1 0 3 5 4 4 10 7 5 5 5 4 7 7 4 6 9 11 11 12 11 8 10 11 12 12 13 13 13 11 11 12 13 11 9 8 8 8 7 7 8
-1 -1 -1 -1 2 2 4 4 3 6 13 11 8 6 5 5 9 4 3 6 9 11 10 11 8 10 11 12 11 15 10 11 12 14 17 12 18 12 10 10 9 9 8 8 7
-1 -1 -1 -1 2 4 2 3 5 6 20 12 9 3 5 8 7 7 3 6 10 11 10 13 11 12 13 12 10 13 9 11 12 14 15 14 17 14 10 11 10 9 8 7 7
-1 -1 -1 1 1 1 2 4 5 15 21 15 8 9 9 8 8 7 7 5 6 9 11 10 8 9 10 9 9 9 11 12 12 14 19 15 15 14 12 11 10 9 8 8 7
-1 -1 -0 0 4 1 2 6 14 19 15 14 12 9 10 11 10 9 10 11 13 15 15 12 11 10 8 12 9 10 14 19 20 20 20 14 16 14 11 10 11 10 9 8 8
-1 -1 -0 0 -0 1 5 12 18 18 19 12 11 10 12 11 10 10 11 13 10 12 14 16 17 11 9 11 13 13 13 18 22 22 19 14 18 15 10 8 8 9 9 9 10
-1 1 2 1 0 1 8 15 16 15 15 12 11 12 12 11 11 11 12 12 11 10 14 16 16 10 9 9 9 13 15 12 17 18 19 16 14 12 11 10 10 10 10 11 10
2 3 3 0 1 3 10 13 13 12 11 10 15 13 15 12 12 12 12 10 11 9 8 12 16 12 10 9 9 12 10 16 16 21 22 18 17 15 12 10 9 11 11 11 11
3 7 3 0 2 7 13 13 14 13 10 13 16 15 14 13 12 13 13 11 8 10 8 10 13 14 11 13 13 13 14 14 14 16 20 21 17 13 11 11 11 11 12 13 13
7 10 3 1 10 11 12 11 12 12 11 11 12 13 14 13 12 12 13 11 8 8 12 10 13 16 14 10 9 10 13 13 18 19 17 18 16 12 12 11 12 12 12 12 13
8 8 3 3 13 12 11 12 11 11 11 11 12 11 11 12 14 12 11 8 8 9 11 10 14 18 17 13 11 13 12 11 12 13 17 19 16 12 12 12 12 12 12 12 13
8 11 9 7 10 11 12 13 13 11 11 11 12 10 11 12 12 12 12 10 8 8 8 8 13 15 18 16 13 15 13 12 13 17 16 16 14 11 9 9 9 8 9 11 12
8 9 9 13 11 10 10 12 13 13 11 11 11 11 11 13 13 13 12 11 10 8 9 10 15 13 13 13 12 13 13 13 14 14 16 14 14 11 9 9 8 8 9 11 11
9 9 9 10 9 11 10 12 12 13 12 12 12 11 11 12 12 13 11 11 12 10 11 10 14 13 15 13 13 14 13 13 12 13 13 13 13 9 8 7 8 7 7 8 11
6 6 10 9 10 11 12 12 11 11 12 11 11 12 12 11 10 9 9 9 10 11 12 12 13 15 17 13 14 17 14 13 12 11 11 15 11 8 9 8 8 8 7 8 7

GFSSW_con_lsi_168.txt.gz
Lid_Strength_Index
-1 -1 -1 -1 -1 -1 -1 -0 -0 -1 -1 -0 -0 -1 -1 -1 -1 0 3 1 -0 -1 -0 0 1 2 2 4 3 5 9 11 10 10 8 8 8 7 8 7 5 4 4 3 2
-2 -1 -1 -1 -1 -1 -1 -1 -1 -1 -1 -1 -1 -1 -1 -1 1 3 -1 -2 -2 -2 1 3 4 3 5 5 5 7 10 10 7 6 7 7 7 6 7 7 7 6 3 2 2
-1 -1 -1 -1 -1 -1 -1 -1 -1 -1 -1 -1 -1 -1 -1 -1 4 3 -2 -2 -2 -1 0 1 2 4 6 5 6 7 10 7 6 6 6 6 7 6 6 7 6 7 6 3 3
-1 -1 -1 -1 -1 -1 -2 -1 -1 -1 -1 -1 -1 -1 -1 0 11 2 -1 -2 -2 -1 1 2 4 6 8 8 6 9 7 6 6 6 6 7 5 6 6 5 5 5 6 6 3
-1 -1 -1 -1 -1 -1 -1 -1 -1 -1 -1 -1 -1 -1 0 5 5 0 -1 -2 -1 0 2 4 5 6 8 7 7 8 7 6 5 6 6 6 7 6 6 5 4 6 8 7 5
-1 -1 -1 -1 -1 -1 -1 -2 -1 -1 -1 -1 -1 -1 2 8 0 -1 -1 -0 0 1 3 3 4 4 6 7 8 7 7 6 6 6 6 7 6 7 6 4 5 6 6 5 5
-1 -1 -1 -1 -1 -1 -1 -2 -2 -1 -1 -1 -1 0 4 5 -0 -1 -0 1 0 1 4 2 2 5 5 8 6 7 9 7 7 7 7 6 8 8 5 5 6 6 6 5 5
-1 -1 -1 -1 -1 -1 -1 -1 -1 -2 -1 -1 -1 1 6 1 -1 0 -0 1 0 0 1 1 2 4 6 5 7 10 10 13 8 7 7 7 11 6 4 5 6 5 6 6 6
-1 -1 -1 -1 -1 -1 -1 -1 -1 -2 -2 -1 1 3 7 0 3 1 0 3 2 2 1 1 3 6 7 9 11 10 13 12 10 7 8 9 10 6 5 5 6 5 5 6 6
-1 -1 -1 -1 -1 -1 -1 -1 -2 -1 -1 -0 1 5 5 6 3 1 0 1 3 4 5 5 6 9 9 11 16 14 13 11 11 8 9 10 10 7 6 6 6 6 6 6 6
-1 -1 -1 -1 -1 -1 -1 1 4 5 3 6 6 6 5 2 1 3 1 3 4 5 10 7 11 13 11 9 9 9 11 11 9 7 9 10 9 8 6 6 6 6 6 5 5
-1 -1 -1 -1 -1 -1 1 5 5 4 7 3 4 4 3 2 6 4 1 6 7 11 8 10 13 9 8 8 10 11 12 12 10 9 9 10 10 8 7 7 6 6 6 6 5
-1 -1 -1 -1 -1 0 3 5 3 3 8 6 4 5 5 3 6 6 4 5 8 10 10 12 10 8 9 10 11 11 12 12 12 9 9 10 12 9 7 6 6 5 5 5 6
-1 -1 -1 -1 1 1 4 3 3 2 11 10 8 6 4 4 7 3 3 5 8 11 10 10 8 9 10 11 10 14 9 10 11 12 16 9 17 10 8 8 6 6 5 5 5
-1 -1 -1 -1 2 4 2 3 4 4 19 9 7 2 4 7 6 7 3 5 9 10 9 11 10 11 11 11 9 11 8 10 11 13 14 13 16 12 8 9 7 6 5 4 4
-1 -1 -1 0 1 1 0 3 5 14 19 12 8 9 9 7 7 6 6 4 5 8 8 9 7 8 9 8 8 8 10 11 12 14 19 14 15 14 11 9 7 6 5 4 4
-1 -1 -0 -0 4 -0 2 6 14 17 13 13 11 9 9 10 9 9 10 11 12 15 14 10 10 8 8 10 9 10 13 19 20 20 19 12 15 13 9 7 7 6 5 5 4
-1 -1 -0 0 -1 0 3 12 17 15 15 10 10 10 12 9 10 10 10 12 9 10 13 15 16 10 8 10 12 12 12 17 20 20 16 13 17 12 8 6 6 5 5 5 5
-1 1 2 1 -0 1 7 15 15 13 13 12 10 13 12 10 10 10 11 11 10 10 13 15 15 9 8 8 8 12 15 11 16 16 18 15 12 9 8 7 6 6 6 6 7
2 3 3 0 -0 3 10 13 12 10 9 9 13 11 14 13 11 11 12 9 10 8 7 10 15 10 9 8 8 10 9 16 16 21 20 15 14 13 10 8 6 6 7 7 8
2 7 3 0 1 7 13 12 12 9 9 10 11 12 11 12 11 12 12 9 8 8 7 9 12 13 11 13 13 13 14 12 12 14 18 18 14 8 8 7 7 7 8 8 8
4 10 2 1 9 10 12 10 11 11 9 10 11 11 11 11 12 11 11 9 6 7 11 9 12 15 13 9 8 9 12 12 16 18 16 16 15 8 7 7 7 8 8 9 7
7 7 2 3 12 12 10 10 10 10 10 9 10 10 9 10 13 11 10 7 7 8 9 10 14 17 16 13 11 12 11 11 11 13 17 18 14 7 7 7 8 7 7 7 6
6 10 7 6 8 10 11 11 12 7 9 9 9 9 10 11 10 11 11 8 7 7 7 8 12 14 16 14 13 15 12 12 13 17 16 16 13 9 8 8 7 6 5 5 5
7 9 8 12 10 10 9 10 11 11 8 9 10 9 10 12 11 11 10 10 8 7 8 9 15 13 12 12 12 13 13 13 14 13 16 13 12 10 8 7 7 6 5 5 5
8 8 7 9 8 10 9 11 11 10 10 10 10 9 9 11 10 12 10 10 10 9 9 9 14 13 14 11 12 14 12 12 12 12 12 12 13 8 7 6 6 6 6 6 6
5 5 6 9 9 10 11 10 10 8 9 7 8 9 10 9 7 7 7 7 8 10 11 11 13 14 16 13 14 16 13 12 11 10 11 14 11 7 8 7 7 6 6 6 6

GFSSW_con_lsi_171.txt.gz
Lid_Strength_Index
-2 -2 -1 -0 -1 -1 -1 -1 -1 -1 -1 -1 -1 -0 -1 -1 -1 0 3 1 0 -1 -1 0 1 2 2 4 3 3 9 11 10 9 8 6 8 6 6 7 5 4 4 3 2
-2 -2 -2 -1 -1 -1 -1 -1 -1 -1 -1 -1 -1 -1 -1 -1 1 3 -1 -1 -1 -2 1 2 3 3 4 5 5 6 9 9 6 6 7 6 6 6 7 7 7 5 3 2 2
-1 -1 -1 -2 -1 -1 -2 -1 -1 -1 -1 -1 -1 -1 -1 -1 3 3 -3 -2 -2 -1 0 1 2 3 5 4 5 6 9 7 6 5 5 6 6 5 6 7 6 6 5 3 3
-1 -1 -1 -1 -1 -1 -2 -1 -1 -1 -1 -1 -1 -1 -1 0 10 1 -1 -1 -2 -1 1 2 3 6 7 7 5 8 6 6 6 5 6 6 5 6 5 5 3 3 4 4 3
-1 -1 -1 -1 -1 -1 -1 -2 -1 -1 -1 -1 -1 -1 0 4 5 -1 -2 -1 -1 0 2 4 5 5 8 6 6 8 6 5 5 5 5 5 6 6 6 4 3 3 4 5 5
-1 -1 -1 -1 -1 -1 -1 -1 -1 -1 -1 -1 -1 -1 2 7 1 -1 -1 -0 0 1 2 3 4 4 6 6 7 6 6 6 5 6 5 7 6 6 5 4 4 4 4 5 4
-1 -1 -1 -1 -1 -1 -1 -1 -1 -1 -1 -1 -1 0 4 5 -0 -1 -0 1 0 1 3 2 2 4 5 7 5 6 9 7 7 6 7 6 8 8 4 4 5 5 4 4 4
-1 -1 -1 -1 -1 -1 -1 -1 -1 -1 -1 -1 -1 1 6 1 -1 0 -0 1 0 0 1 1 1 4 5 5 7 9 8 12 7 6 6 7 10 6 4 4 5 5 4 4 4
-1 -1 -1 -1 -1 -1 -1 -1 -1 -2 -2 -1 1 2 7 1 2 0 0 2 1 1 1 1 2 5 6 9 11 10 13 12 10 6 7 8 10 6 4 5 5 5 4 4 4
-1 -1 -1 -1 -1 -1 -1 -1 -1 -1 -1 0 1 5 5 6 3 1 -0 1 3 4 4 5 6 9 9 11 16 13 13 11 11 8 8 9 9 7 5 5 6 5 4 4 4
-1 -1 -1 -1 -1 -1 -0 1 4 5 4 6 6 6 5 3 2 2 1 3 3 5 9 7 11 13 10 9 9 9 10 11 9 7 9 9 9 7 6 6 6 5 5 4 4
-1 -1 -1 -1 -1 -1 0 5 5 4 8 4 4 4 3 2 6 4 1 6 7 10 8 10 13 8 7 8 9 10 11 11 9 8 9 9 10 7 6 6 6 5 5 5 4
-1 -1 -1 -1 -1 0 2 4 2 3 9 7 4 4 4 3 6 6 4 5 8 10 10 11 9 7 8 9 11 11 12 11 11 9 8 9 11 9 7 6 5 5 4 4 4
-1 -1 -1 -1 1 1 3 2 2 2 12 11 8 5 4 4 7 3 3 5 8 10 9 10 7 9 10 11 10 13 8 9 10 12 15 9 16 10 8 8 6 5 5 4 4
-1 -1 -1 -1 1 4 2 1 2 5 19 9 8 3 4 7 6 6 2 5 8 9 9 11 10 10 11 11 9 11 8 9 10 12 12 12 15 12 8 9 7 6 5 4 3
-1 -1 -1 0 1 0 1 2 5 14 19 12 8 8 8 7 7 6 6 4 4 8 8 8 6 8 8 7 8 7 9 10 11 13 19 13 14 13 10 8 7 6 5 4 4
-1 -1 1 -0 4 -0 1 6 14 17 11 13 11 9 9 10 9 9 10 10 11 14 14 10 10 7 7 10 8 9 12 18 20 20 19 11 14 12 8 7 7 6 5 4 4
-1 -1 1 0 -1 1 3 11 17 13 13 9 9 10 11 9 10 10 11 12 9 9 11 14 15 10 8 9 11 11 12 17 20 20 17 12 16 12 7 6 5 5 5 4 4
-1 1 2 1 -0 1 7 15 15 12 9 10 10 13 12 10 10 10 11 12 9 8 12 13 13 8 7 7 8 12 15 10 15 15 18 14 11 8 7 7 6 6 5 5 5
2 3 4 2 1 3 10 13 12 8 9 9 13 12 15 13 12 12 11 8 10 7 7 10 14 9 8 7 8 10 9 16 16 20 21 15 14 13 9 8 6 6 6 6 5
2 7 2 0 2 8 13 12 10 7 7 10 11 12 11 13 11 12 11 8 7 8 7 9 11 13 10 12 12 11 13 12 13 15 18 18 14 8 8 7 7 6 6 6 6
4 10 1 1 9 10 12 10 8 9 7 8 9 10 11 11 12 11 11 9 6 7 11 9 12 15 13 9 8 9 11 11 15 16 15 15 15 7 7 6 6 6 6 5 4
7 6 1 3 12 12 10 10 8 9 9 9 10 8 8 10 13 10 9 6 6 7 9 9 13 17 16 12 10 12 11 10 11 12 16 17 14 7 6 6 6 6 5 5 4
6 10 7 6 7 10 11 11 11 7 8 7 8 8 9 10 9 11 10 7 6 7 7 7 11 14 16 14 11 14 12 10 12 16 15 15 13 9 7 7 6 6 5 5 5
7 9 8 11 10 9 9 10 11 12 7 7 9 9 10 12 11 11 9 8 7 7 7 8 14 12 11 10 11 12 14 13 13 13 15 13 12 9 8 7 6 6 5 5 5
8 9 7 9 8 10 10 11 11 10 10 10 10 9 9 11 10 11 9 9 10 8 9 8 14 13 14 11 11 14 12 12 12 13 13 12 12 8 6 6 6 6 5 6 5
4 3 6 8 9 10 11 10 10 8 8 7 8 8 9 9 7 6 6 7 7 9 10 11 13 15 16 12 13 16 13 11 11 10 11 14 11 7 7 7 6 6 6 6 7